This is the latest recevied weather packets stored in our database for station/object KO4LFZ. If no packets are shown the sender has not sent any weather packets the latest 10 day(s).
| Time | Temp. | Humidity | Pressure | Rain* | Wind** | Luminosity | Snow |
|---|---|---|---|---|---|---|---|
| 1778273320 | 23.33° C | 46% | 1010.9 hPa | 0 mm | - | 553 W/m² | - |
| 1778273017 | 22.78° C | 46% | 1011 hPa | 0 mm | - | 551 W/m² | - |
| 1778272713 | 23.33° C | 49% | 1010.7 hPa | 0 mm | - | 573 W/m² | - |
| 1778272409 | 23.33° C | 45% | 1010.8 hPa | 0 mm | - | 609 W/m² | - |
| 1778272105 | 22.78° C | 47% | 1010.9 hPa | 0 mm | - | 615 W/m² | - |
| 1778271802 | 23.33° C | 47% | 1011.1 hPa | 0 mm | - | 632 W/m² | - |
| 1778271494 | 23.33° C | 45% | 1011.1 hPa | 0 mm | - | 652 W/m² | - |
| 1778271191 | 23.33° C | 47% | 1011.2 hPa | 0 mm | - | 652 W/m² | - |
| 1778270887 | 22.78° C | 47% | 1011.3 hPa | 0 mm | - | 647 W/m² | - |
| 1778270584 | 22.78° C | 48% | 1011.5 hPa | 0 mm | - | 658 W/m² | - |
| 1778270280 | 22.78° C | 48% | 1011.5 hPa | 0 mm | - | 658 W/m² | - |
| 1778269976 | 22.78° C | 46% | 1011.5 hPa | 0 mm | - | 661 W/m² | - |
| 1778269673 | 22.78° C | 49% | 1011.7 hPa | 0 mm | - | 665 W/m² | - |
| 1778269370 | 22.78° C | 48% | 1011.8 hPa | 0 mm | - | 665 W/m² | - |
| 1778269067 | 22.78° C | 46% | 1011.9 hPa | 0 mm | - | 653 W/m² | - |
| 1778268764 | 22.78° C | 49% | 1011.9 hPa | 0 mm | - | 632 W/m² | - |
| 1778268460 | 22.78° C | 47% | 1012 hPa | 0 mm | - | 628 W/m² | - |
| 1778268157 | 22.78° C | 44% | 1012 hPa | 0 mm | - | 629 W/m² | - |
| 1778267855 | 22.78° C | 45% | 1012.1 hPa | 0 mm | - | 676 W/m² | - |
| 1778267552 | 22.78° C | 48% | 1012.1 hPa | 0 mm | - | 717 W/m² | - |
| 1778267249 | 22.22° C | 45% | 1012.4 hPa | 0 mm | - | 727 W/m² | - |
| 1778266944 | 22.22° C | 47% | 1012.3 hPa | 0 mm | - | 706 W/m² | - |
| 1778266641 | 22.78° C | 46% | 1012.4 hPa | 0 mm | - | 681 W/m² | - |
| 1778266339 | 22.22° C | 47% | 1012.7 hPa | 0 mm | - | 698 W/m² | - |
| 1778266036 | 22.22° C | 51% | 1012.8 hPa | 0 mm | - | 729 W/m² | - |
* Rain latest hour (hover to see other rain measurements)
** Current wind speed in m/s (hover to see current wind gust speed)